Погода в Улюне

Россия / Республика Бурятия     53°49′36″N   109°54′41″E
темп.,
°C
ветер,
м/с
пор.,
м/с
влажн.,
%
обл.,
%
осадки,
мм/ч
давл.,
гПа
погр.,
м
23 апреля, пт
пт2323:00−3ю1155100 0.0 103626
02:00−4сз115610 0.0 103910
05:00−5ссв1156100 0.0 104114
08:00−2св334288 0.0 1043503
11:00+2св232770 0.0 10421141
14:00+5всв1221100 0.0 10401578
17:00+5ююв1120100 0.0 10391577
20:00+1юз3552100 0.0 1041100
24 апреля, сб
сб2423:00−2ююз2262100 0.0 104221
02:00−3всв1162100 0.0 104210
05:00−3св2260100 0.0 104213
08:000св3442100 0.0 1041390
11:00+5св4429100 0.0 1037782
14:00+9ссв442197 0.0 1032883
17:00+9ссв5423100 0.0 1028549
20:00+6св3531100 0.0 102661
25 апреля, вс
вс2523:00+5св3336100 0.0 102552
02:00+5ссв1140100 0.1 102320
05:00+3вюв0160100 0.3 102114
08:00+4юз0057100 0.3 101958
11:00+4юз2278100 0.3 1019509
14:00+3ююз5792100 0.4 1018464
17:00+4ююз5680100 0.1 1017569
20:00+2ююз4685100 0.1 1016364
26 апреля, пн
пн2623:00+1ююз3486100 0.0 1016102
02:00−1ююз348481 0.0 101691
05:00−3ююз34894 0.0 101582
08:00+1ююз44638 0.0 1014617
11:00+6зюз453653 0.0 10111833
14:00+8зсз572913 0.0 10102112
17:00+6з473822 0.0 10111628
20:00+3зюз45582 0.0 101393
27 апреля, вт
вт2723:000юз46839 0.1 1014206
02:00−1зюз33771 0.2 101551
05:00−4юз33764 0.0 101855
08:000з34465 0.0 1019971
11:00+3зсз45304 0.0 10191868
14:00+4сз56265 0.0 10192013
17:00+3зсз36284 0.0 10201895
20:000з22425 0.0 102021